CZ-6A DEB, 60894

Orbit data source: Space-Track

CZ-6A DEB, 60894 is space debris in LEO originally from a launch on Tue, 06 Aug 2024 UTC launched from the Taiyaun Space Center, China (TSC). Debris objects in space refer to the collection of defunct objects orbiting the Earth. Examples of debris include non-operational satellites, rocket bodies, and fragments generated from explosions, collisions, or faulty payload assembly.

Loading next visibility...
Identifier
60894, 2024-140KZ
Orbit
LEO
Country
Flag of CNCN / PRC
Related business
Manufacturer
SAST
Mission
Spacecraft
Bus & Motor
Unknown
Mass
Unknown
Launch date (UTC)
2024-08-06 (2 years ago)
Launch vehicle
Unknown
Launch site
Taiyaun Space Center, China (TSC)
Object type
Payload
Rocket body
Debris
Shape & HBR
Unknown shape, 0.1 m
Radar Cross Section
Medium (>0.1 m² and <1 m²)

Expand to show TLE details & history
Last TLE update: 13 hours ago

TLE from 13 hours ago
0 CZ-6A DEB
1 60894U 24140KZ  26171.31511456  .00000496  00000-0  24521-3 0  9997
2 60894  89.0540 279.2808 0074310 212.2762 147.3868 14.14441889 94754
Epoch: 2026-06-20T07:33Z
TLE epoch observation values (Epoch: 2026-06-20T07:33:45.897Z)
Latitude
-0.00001°
Longitude
-102.69194°
Altitude
892.588 km
Speed
7.383 km/s
True Right ascension
18h 37m 07s
True Declination
0° 00' 00"
Sunlit
Object was in full shadow at epoch
Visualization orbit readout
Latitude
Unknown
Longitude
Unknown
Altitude
Unknown
Speed
Unknown
Apparent Right ascension
Unknown
Apparent Declination
Unknown
Sunlit
N/A
Visualization observer readout
Local Sidereal Time
07:19:49
Azimuth
Unknown
Elevation
Unknown
Doppler factor
Unknown
Orbital elements
Apogee altitude
894.817 km
Perigee altitude
787.523 km
Semi-major axis
7,219.307 km
Eccentricity
0.00743
Inclination
89.054°
RAAN
279.2808°
Arg. of periapsis
212.2762°
True anomaly
147.84218°
Mean anomaly
147.3868°
Eccentric anomaly
147.61484°
Mean motion
3.53834 °/min
Orbital period
101.74 mins
BSTAR
0.00024521
Loading maneuver chart data...
Computing Atmospheric mass density...
Loading historical data...
Loading historical data...
Loading historical data...
Loading historical data...
Loading historical data...
Loading historical data...
Loading historical data...

Documentation

Showing up to 5 results
|